Location: Unspecified
(45.0173°N, 35.2345°E)
Time: 04:27:01
(UTC+02:00)

ISS - Pass Details

Date: 24 January 2026
Orbit: 414 x 429 km, 51.6° (Epoch: 7 February)

Event Time Altitude Azimuth Distance (km) Brightness Sun altitude
Rises 17:20:51 0° 295° (WNW) 2,362 0.8 -8.2°
Reaches altitude 10° 17:23:09 10° 307° (NW) 1,501 -0.5 -8.6°
Maximum altitude 17:26:06 28° 9° (N) 832 -2.5 -9.1°
Enters shadow 17:28:29 14° 64° (ENE) 1,306 -1.9 -9.5°
